APJ507 RJAA-ROAH

Flight info

Callsign APJ507
Flight time 2h 57m
Altitude 38000
Route SAMUS Y84 HCE Y86 YULIA Y293 TONAR Y525 IHEYA
Aircraft A20N/M-SDE2E3FGHIRWXY/LB1

Departure

Time 2026-04-24 08:37
Airport Narita International Airport (RJAA)

Arrival

Time 2026-04-24 11:34
Airport Naha International Airport (ROAH)
Time Latitude Longitude Altitude Speed Heading
2026-04-24 08:15 35.78059 140.38654 146 ft 0 kts 329°
2026-04-24 08:22 35.78050 140.38660 146 ft 2 kts 329°
2026-04-24 08:22 35.78038 140.38669 146 ft 2 kts 330°
2026-04-24 08:22 35.78025 140.38677 146 ft 2 kts 331°
2026-04-24 08:22 35.78013 140.38685 146 ft 2 kts 335°
2026-04-24 08:23 35.78001 140.38691 146 ft 2 kts 346°
2026-04-24 08:23 35.77991 140.38693 146 ft 1 kts 10°
2026-04-24 08:23 35.77983 140.38690 146 ft 1 kts 31°
2026-04-24 08:23 35.77978 140.38686 147 ft 1 kts 38°
2026-04-24 08:24 35.77974 140.38681 147 ft 1 kts 41°
2026-04-24 08:24 35.77973 140.38680 147 ft 0 kts 41°
2026-04-24 08:28 35.77989 140.38698 146 ft 6 kts 41°
2026-04-24 08:28 35.78033 140.38746 146 ft 11 kts 41°
2026-04-24 08:29 35.78084 140.38829 146 ft 14 kts 83°
2026-04-24 08:29 35.78054 140.38955 146 ft 17 kts 108°
2026-04-24 08:29 35.78067 140.39090 146 ft 16 kts 110°
2026-04-24 08:29 35.77975 140.39178 147 ft 18 kts 131°
2026-04-24 08:30 35.77913 140.39326 147 ft 21 kts 116°
2026-04-24 08:30 35.77837 140.39490 147 ft 23 kts 142°
2026-04-24 08:30 35.77692 140.39596 147 ft 26 kts 149°
2026-04-24 08:30 35.77529 140.39713 147 ft 28 kts 149°
2026-04-24 08:31 35.77358 140.39836 147 ft 28 kts 150°
2026-04-24 08:31 35.77188 140.39958 147 ft 28 kts 149°
2026-04-24 08:31 35.77014 140.39965 147 ft 26 kts 203°
2026-04-24 08:31 35.76848 140.39890 147 ft 25 kts 182°
2026-04-24 08:32 35.76694 140.39820 147 ft 24 kts 221°
2026-04-24 08:32 35.76556 140.39712 147 ft 23 kts 203°
2026-04-24 08:32 35.76410 140.39631 147 ft 23 kts 204°
2026-04-24 08:32 35.76259 140.39549 147 ft 25 kts 204°
2026-04-24 08:33 35.76089 140.39454 147 ft 28 kts 204°
2026-04-24 08:33 35.75910 140.39357 147 ft 28 kts 204°
2026-04-24 08:33 35.75752 140.39234 146 ft 27 kts 239°
2026-04-24 08:33 35.75630 140.39080 146 ft 25 kts 204°
2026-04-24 08:34 35.75473 140.38993 147 ft 24 kts 204°
2026-04-24 08:34 35.75319 140.38908 147 ft 24 kts 204°
2026-04-24 08:34 35.75168 140.38825 148 ft 24 kts 204°
2026-04-24 08:34 35.75024 140.38829 148 ft 22 kts 149°
2026-04-24 08:35 35.74884 140.38932 148 ft 25 kts 148°
2026-04-24 08:35 35.74732 140.39043 148 ft 27 kts 149°
2026-04-24 08:35 35.74576 140.39108 147 ft 17 kts 220°
2026-04-24 08:35 35.74540 140.38978 146 ft 18 kts 283°
2026-04-24 08:36 35.74606 140.38875 148 ft 0 kts 330°
2026-04-24 08:36 35.74615 140.38869 148 ft 8 kts 330°
2026-04-24 08:36 35.74806 140.38732 149 ft 64 kts 329°
2026-04-24 08:36 35.75401 140.38303 148 ft 129 kts 329°
2026-04-24 08:37 35.76321 140.37646 307 ft 164 kts 335°
2026-04-24 08:37 35.77305 140.36941 911 ft 165 kts 335°
2026-04-24 08:37 35.78323 140.36263 1559 ft 167 kts 338°
2026-04-24 08:37 35.79381 140.35644 2234 ft 171 kts 341°
2026-04-24 08:38 35.80503 140.34862 2673 ft 200 kts 332°
2026-04-24 08:38 35.81781 140.33858 3000 ft 234 kts 330°
2026-04-24 08:38 35.83209 140.32753 3726 ft 247 kts 330°
2026-04-24 08:38 35.84679 140.31643 4734 ft 247 kts 331°
2026-04-24 08:39 35.86151 140.30550 5778 ft 248 kts 330°
2026-04-24 08:39 35.87650 140.29451 6693 ft 253 kts 330°
2026-04-24 08:39 35.89183 140.28334 7507 ft 259 kts 330°
2026-04-24 08:39 35.90756 140.27191 8319 ft 266 kts 329°
2026-04-24 08:40 35.92369 140.26022 9173 ft 271 kts 329°
2026-04-24 08:40 35.94009 140.24831 10013 ft 276 kts 328°
2026-04-24 08:40 35.95725 140.23636 10514 ft 293 kts 333°
2026-04-24 08:40 35.97760 140.22930 10833 ft 318 kts 354°
2026-04-24 08:41 36.00020 140.23376 11143 ft 345 kts 20°
2026-04-24 08:41 36.02065 140.25074 11537 ft 366 kts 43°
2026-04-24 08:41 36.03576 140.27661 12167 ft 379 kts 62°
2026-04-24 08:41 36.04295 140.30780 12854 ft 389 kts 82°
2026-04-24 08:42 36.04419 140.34144 13565 ft 395 kts 89°
2026-04-24 08:42 36.04412 140.37563 14186 ft 401 kts 89°
2026-04-24 08:42 36.04333 140.41041 14703 ft 410 kts 95°
2026-04-24 08:42 36.03662 140.44485 15228 ft 416 kts 114°
2026-04-24 08:43 36.02318 140.47665 15815 ft 421 kts 122°
2026-04-24 08:43 36.00790 140.50775 16388 ft 427 kts 124°
2026-04-24 08:43 35.99091 140.53798 16955 ft 430 kts 133°
2026-04-24 08:43 35.97101 140.56564 17526 ft 433 kts 137°
2026-04-24 08:44 35.95017 140.59285 18087 ft 438 kts 138°
2026-04-24 08:44 35.92903 140.62026 18597 ft 443 kts 138°
2026-04-24 08:44 35.90771 140.64796 19106 ft 446 kts 139°
2026-04-24 08:44 35.88498 140.67369 19624 ft 442 kts 149°
2026-04-24 08:45 35.85944 140.69455 20162 ft 440 kts 155°
2026-04-24 08:45 35.83309 140.71373 20706 ft 441 kts 157°
2026-04-24 08:45 35.80648 140.73272 21233 ft 443 kts 157°
2026-04-24 08:45 35.77970 140.75184 21722 ft 446 kts 158°
2026-04-24 08:46 35.75273 140.77115 22191 ft 450 kts 158°
2026-04-24 08:46 35.72559 140.79041 22652 ft 451 kts 159°
2026-04-24 08:46 35.69736 140.80679 23096 ft 446 kts 167°
2026-04-24 08:46 35.66865 140.81997 23542 ft 446 kts 169°
2026-04-24 08:47 35.63888 140.83283 23934 ft 448 kts 170°
2026-04-24 08:47 35.60980 140.84529 24275 ft 451 kts 171°
2026-04-24 08:47 35.58009 140.85804 24650 ft 453 kts 171°
2026-04-24 08:47 35.55027 140.87087 25009 ft 455 kts 171°
2026-04-24 08:48 35.52032 140.88376 25372 ft 457 kts 172°
2026-04-24 08:48 35.49034 140.89668 25719 ft 458 kts 172°
2026-04-24 08:48 35.46019 140.90967 26073 ft 460 kts 172°
2026-04-24 08:48 35.42994 140.92270 26425 ft 461 kts 173°
2026-04-24 08:49 35.39960 140.93575 26766 ft 463 kts 173°
2026-04-24 08:49 35.36925 140.94880 27103 ft 464 kts 173°
2026-04-24 08:49 35.33874 140.96191 27433 ft 465 kts 173°
2026-04-24 08:49 35.30816 140.97504 27786 ft 465 kts 174°
2026-04-24 08:50 35.27768 140.98816 28274 ft 462 kts 174°
2026-04-24 08:50 35.24745 141.00117 28805 ft 458 kts 175°
2026-04-24 08:50 35.21752 141.01319 29319 ft 447 kts 179°
2026-04-24 08:50 35.18775 141.02058 29821 ft 427 kts 187°
2026-04-24 08:51 35.15859 141.02387 30303 ft 417 kts 190°
2026-04-24 08:51 35.12978 141.02615 30678 ft 413 kts 191°
2026-04-24 08:51 35.10111 141.02824 31013 ft 412 kts 191°
2026-04-24 08:51 35.07259 141.03035 31346 ft 411 kts 191°
2026-04-24 08:52 35.04404 141.03251 31656 ft 411 kts 191°
2026-04-24 08:52 35.01558 141.03469 31974 ft 410 kts 190°
2026-04-24 08:52 34.98711 141.03689 32296 ft 409 kts 190°
2026-04-24 08:52 34.95869 141.03910 32622 ft 409 kts 190°
2026-04-24 08:53 34.93031 141.04131 32930 ft 408 kts 190°
2026-04-24 08:53 34.90198 141.04352 33235 ft 408 kts 190°
2026-04-24 08:53 34.87375 141.04572 33530 ft 407 kts 190°
2026-04-24 08:53 34.84549 141.04793 33816 ft 407 kts 190°
2026-04-24 08:54 34.81720 141.05013 34048 ft 407 kts 190°
2026-04-24 08:54 34.78892 141.05232 34241 ft 408 kts 190°
2026-04-24 08:54 34.76046 141.05453 34423 ft 409 kts 190°
2026-04-24 08:54 34.73205 141.05673 34605 ft 410 kts 190°
2026-04-24 08:55 34.70351 141.05894 34781 ft 411 kts 190°
2026-04-24 08:55 34.67490 141.06116 34970 ft 412 kts 190°
2026-04-24 08:55 34.64634 141.06339 35158 ft 413 kts 190°
2026-04-24 08:55 34.61782 141.06468 35338 ft 404 kts 195°
2026-04-24 08:56 34.59062 141.06051 35521 ft 385 kts 206°
2026-04-24 08:56 34.56599 141.04983 35709 ft 368 kts 217°
2026-04-24 08:56 34.54476 141.03370 35911 ft 355 kts 227°
2026-04-24 08:56 34.52645 141.01400 36132 ft 350 kts 231°
2026-04-24 08:57 34.50900 140.99353 36377 ft 348 kts 231°
2026-04-24 08:57 34.49172 140.97305 36607 ft 347 kts 231°
2026-04-24 08:57 34.47447 140.95266 36837 ft 346 kts 232°
2026-04-24 08:57 34.45728 140.93245 37056 ft 345 kts 232°
2026-04-24 08:58 34.44008 140.91227 37276 ft 344 kts 232°
2026-04-24 08:58 34.42291 140.89218 37486 ft 342 kts 232°
2026-04-24 08:58 34.40580 140.87218 37711 ft 341 kts 232°
2026-04-24 08:58 34.38879 140.85232 37907 ft 340 kts 232°
2026-04-24 08:59 34.37174 140.83242 37996 ft 341 kts 232°
2026-04-24 08:59 34.33778 140.79290 37998 ft 340 kts 232°
2026-04-24 09:00 34.30372 140.75334 38006 ft 339 kts 232°
2026-04-24 09:00 34.26966 140.71383 38002 ft 339 kts 232°
2026-04-24 09:01 34.23568 140.67446 37999 ft 338 kts 232°
2026-04-24 09:01 34.20169 140.63513 38012 ft 338 kts 232°
2026-04-24 09:02 34.16776 140.59590 38001 ft 337 kts 232°
2026-04-24 09:02 34.13392 140.55684 38010 ft 337 kts 232°
2026-04-24 09:03 34.10005 140.51778 38000 ft 337 kts 232°
2026-04-24 09:03 34.06622 140.47881 38002 ft 336 kts 232°
2026-04-24 09:04 34.03235 140.43985 38000 ft 336 kts 231°
2026-04-24 09:04 33.99854 140.40099 37992 ft 336 kts 231°
2026-04-24 09:05 33.96468 140.36213 37996 ft 336 kts 231°
2026-04-24 09:05 33.93084 140.32333 37995 ft 336 kts 231°
2026-04-24 09:06 33.90276 140.29118 37990 ft 335 kts 231°
2026-04-24 09:06 33.86890 140.25244 37997 ft 336 kts 231°
2026-04-24 09:07 33.83276 140.21619 37986 ft 345 kts 223°
2026-04-24 09:07 33.76803 140.17465 37988 ft 354 kts 218°
2026-04-24 09:08 33.72370 140.14877 37986 ft 355 kts 217°
2026-04-24 09:08 33.67932 140.12272 37984 ft 355 kts 218°
2026-04-24 09:09 33.63503 140.09646 37983 ft 355 kts 218°
2026-04-24 09:09 33.59087 140.07018 37982 ft 355 kts 218°
2026-04-24 09:10 33.54662 140.04385 37982 ft 355 kts 218°
2026-04-24 09:10 33.50235 140.01756 37981 ft 356 kts 218°
2026-04-24 09:11 33.45796 139.99123 37979 ft 356 kts 218°
2026-04-24 09:11 33.41357 139.96495 37977 ft 356 kts 217°
2026-04-24 09:12 33.36907 139.93862 37972 ft 357 kts 217°
2026-04-24 09:12 33.32450 139.91229 37972 ft 357 kts 217°
2026-04-24 09:13 33.27993 139.88598 37971 ft 358 kts 217°
2026-04-24 09:13 33.23520 139.85961 37968 ft 358 kts 217°
2026-04-24 09:14 33.19051 139.83330 37968 ft 359 kts 217°
2026-04-24 09:14 33.14873 139.80269 37970 ft 346 kts 227°
2026-04-24 09:15 33.11588 139.76232 37973 ft 336 kts 239°
2026-04-24 09:15 33.09401 139.71419 37970 ft 332 kts 250°
2026-04-24 09:16 33.07888 139.66227 37970 ft 332 kts 252°
2026-04-24 09:16 33.06483 139.60976 37964 ft 332 kts 252°
2026-04-24 09:17 33.05072 139.55736 37965 ft 332 kts 251°
2026-04-24 09:17 33.03637 139.50502 37963 ft 332 kts 251°
2026-04-24 09:18 33.02188 139.45266 37966 ft 333 kts 251°
2026-04-24 09:18 33.00735 139.40034 37965 ft 333 kts 251°
2026-04-24 09:19 32.99279 139.34796 37967 ft 333 kts 251°
2026-04-24 09:19 32.97821 139.29558 37966 ft 333 kts 251°
2026-04-24 09:20 32.96116 139.23442 37965 ft 333 kts 251°
2026-04-24 09:20 32.94900 139.19090 37965 ft 333 kts 251°
2026-04-24 09:21 32.93437 139.13862 37963 ft 333 kts 251°
2026-04-24 09:21 32.91970 139.08626 37960 ft 333 kts 251°
2026-04-24 09:22 32.90503 139.03403 37962 ft 333 kts 251°
2026-04-24 09:22 32.89033 138.98180 37961 ft 333 kts 251°
2026-04-24 09:23 32.87560 138.92953 37964 ft 333 kts 251°
2026-04-24 09:23 32.86085 138.87730 37962 ft 333 kts 251°
2026-04-24 09:24 32.84610 138.82515 37962 ft 333 kts 251°
2026-04-24 09:24 32.83131 138.77296 37962 ft 333 kts 251°
2026-04-24 09:25 32.81648 138.72074 37964 ft 333 kts 251°
2026-04-24 09:25 32.80165 138.66860 37956 ft 333 kts 251°
2026-04-24 09:26 32.78688 138.61673 37957 ft 333 kts 251°
2026-04-24 09:26 32.77201 138.56459 37959 ft 333 kts 250°
2026-04-24 09:27 32.75710 138.51238 37962 ft 333 kts 250°
2026-04-24 09:27 32.74217 138.46018 37963 ft 333 kts 250°
2026-04-24 09:28 32.72724 138.40808 37959 ft 333 kts 250°
2026-04-24 09:28 32.71225 138.35586 37960 ft 333 kts 250°
2026-04-24 09:29 32.69728 138.30381 37955 ft 333 kts 250°
2026-04-24 09:29 32.68226 138.25167 37959 ft 333 kts 250°
2026-04-24 09:30 32.66723 138.19960 37952 ft 333 kts 250°
2026-04-24 09:30 32.65220 138.14762 37953 ft 333 kts 250°
2026-04-24 09:31 32.63715 138.09563 37949 ft 333 kts 250°
2026-04-24 09:31 32.62205 138.04361 37960 ft 333 kts 250°
2026-04-24 09:32 32.60695 137.99163 37948 ft 333 kts 250°
2026-04-24 09:32 32.59183 137.93970 37948 ft 333 kts 250°
2026-04-24 09:33 32.57665 137.88769 37951 ft 334 kts 250°
2026-04-24 09:33 32.56147 137.83571 37947 ft 334 kts 250°
2026-04-24 09:34 32.54627 137.78380 37956 ft 334 kts 250°
2026-04-24 09:34 32.53102 137.73178 37951 ft 334 kts 250°
2026-04-24 09:35 32.51576 137.67981 37951 ft 334 kts 250°
2026-04-24 09:35 32.50055 137.62811 37955 ft 334 kts 250°
2026-04-24 09:36 32.48523 137.57613 37951 ft 335 kts 250°
2026-04-24 09:36 32.46986 137.52408 37955 ft 335 kts 250°
2026-04-24 09:37 32.45448 137.47209 37946 ft 335 kts 250°
2026-04-24 09:37 32.43905 137.42002 37946 ft 335 kts 249°
2026-04-24 09:38 32.42362 137.36801 37949 ft 335 kts 249°
2026-04-24 09:38 32.40815 137.31596 37946 ft 335 kts 249°
2026-04-24 09:39 32.39265 137.26393 37946 ft 335 kts 249°
2026-04-24 09:39 32.37716 137.21200 37948 ft 335 kts 249°
2026-04-24 09:40 32.36162 137.16001 37948 ft 335 kts 249°
2026-04-24 09:40 32.34609 137.10813 37946 ft 335 kts 249°
2026-04-24 09:41 32.33052 137.05621 37943 ft 335 kts 249°
2026-04-24 09:41 32.31496 137.00440 37940 ft 335 kts 249°
2026-04-24 09:42 32.29937 136.95257 37937 ft 334 kts 249°
2026-04-24 09:42 32.28375 136.90077 37930 ft 334 kts 249°
2026-04-24 09:43 32.26813 136.84902 37935 ft 335 kts 249°
2026-04-24 09:43 32.25245 136.79716 37933 ft 335 kts 249°
2026-04-24 09:44 32.23675 136.74535 37928 ft 335 kts 249°
2026-04-24 09:44 32.22100 136.69345 37928 ft 336 kts 249°
2026-04-24 09:45 32.20524 136.64161 37923 ft 336 kts 249°
2026-04-24 09:45 32.18943 136.58967 37934 ft 336 kts 249°
2026-04-24 09:46 32.17361 136.53778 37930 ft 336 kts 249°
2026-04-24 09:46 32.15774 136.48583 37934 ft 336 kts 249°
2026-04-24 09:47 32.14184 136.43387 37928 ft 336 kts 249°
2026-04-24 09:47 32.12594 136.38200 37930 ft 336 kts 249°
2026-04-24 09:48 32.10999 136.33007 37931 ft 336 kts 249°
2026-04-24 09:48 32.09405 136.27824 37928 ft 336 kts 249°
2026-04-24 09:49 32.07807 136.22638 37915 ft 336 kts 249°
2026-04-24 09:49 32.06209 136.17460 37915 ft 336 kts 249°
2026-04-24 09:50 32.04608 136.12278 37915 ft 336 kts 249°
2026-04-24 09:50 32.03275 136.07974 37914 ft 336 kts 249°
2026-04-24 09:51 32.01673 136.02805 37925 ft 336 kts 249°
2026-04-24 09:51 32.00065 135.97629 37925 ft 336 kts 249°
2026-04-24 09:52 31.98457 135.92460 37915 ft 336 kts 249°
2026-04-24 09:52 31.96845 135.87285 37912 ft 336 kts 249°
2026-04-24 09:53 31.95232 135.82117 37910 ft 336 kts 249°
2026-04-24 09:53 31.93614 135.76941 37916 ft 337 kts 249°
2026-04-24 09:54 31.91992 135.71763 37917 ft 337 kts 248°
2026-04-24 09:54 31.90369 135.66589 37917 ft 337 kts 248°
2026-04-24 09:55 31.88741 135.61407 37916 ft 337 kts 248°
2026-04-24 09:55 31.87113 135.56232 37914 ft 338 kts 248°
2026-04-24 09:56 31.85490 135.51084 37916 ft 338 kts 248°
2026-04-24 09:56 31.83855 135.45906 37914 ft 338 kts 248°
2026-04-24 09:57 31.82215 135.40718 37916 ft 338 kts 248°
2026-04-24 09:57 31.80573 135.35536 37915 ft 339 kts 248°
2026-04-24 09:58 31.78927 135.30346 37915 ft 339 kts 248°
2026-04-24 09:58 31.77278 135.25157 37916 ft 339 kts 248°
2026-04-24 09:59 31.75628 135.19975 37911 ft 339 kts 248°
2026-04-24 09:59 31.73974 135.14787 37906 ft 339 kts 248°
2026-04-24 10:00 31.72302 135.09618 37908 ft 338 kts 246°
2026-04-24 10:00 31.70066 135.04758 37912 ft 339 kts 240°
2026-04-24 10:01 31.67526 135.00104 37906 ft 339 kts 239°
2026-04-24 10:01 31.64922 134.95486 37909 ft 339 kts 238°
2026-04-24 10:02 31.62319 134.90873 37910 ft 339 kts 238°
2026-04-24 10:02 31.59718 134.86245 37905 ft 340 kts 239°
2026-04-24 10:03 31.57116 134.81611 37905 ft 341 kts 239°
2026-04-24 10:03 31.54507 134.76967 37902 ft 341 kts 239°
2026-04-24 10:04 31.51892 134.72319 37903 ft 342 kts 239°
2026-04-24 10:04 31.49274 134.67673 37904 ft 342 kts 239°
2026-04-24 10:05 31.46646 134.63014 37908 ft 343 kts 239°
2026-04-24 10:05 31.44015 134.58356 37906 ft 343 kts 239°
2026-04-24 10:06 31.40071 134.51382 37899 ft 344 kts 239°
2026-04-24 10:07 31.37409 134.46684 37903 ft 344 kts 239°
2026-04-24 10:07 31.34775 134.42040 37898 ft 345 kts 239°
2026-04-24 10:08 31.32123 134.37369 37892 ft 345 kts 239°
2026-04-24 10:08 31.29462 134.32689 37893 ft 346 kts 239°
2026-04-24 10:09 31.26778 134.27973 37893 ft 346 kts 239°
2026-04-24 10:09 31.24126 134.23320 37892 ft 347 kts 239°
2026-04-24 10:10 31.21448 134.18626 37890 ft 347 kts 239°
2026-04-24 10:10 31.18769 134.13937 37892 ft 347 kts 239°
2026-04-24 10:11 31.16083 134.09241 37889 ft 348 kts 239°
2026-04-24 10:11 31.13396 134.04550 37891 ft 348 kts 239°
2026-04-24 10:12 31.10702 133.99851 37889 ft 348 kts 239°
2026-04-24 10:12 31.08008 133.95158 37889 ft 348 kts 239°
2026-04-24 10:13 31.05308 133.90459 37886 ft 349 kts 239°
2026-04-24 10:13 31.02604 133.85760 37889 ft 349 kts 239°
2026-04-24 10:14 30.99900 133.81067 37891 ft 349 kts 239°
2026-04-24 10:14 30.97189 133.76367 37888 ft 349 kts 239°
2026-04-24 10:15 30.94478 133.71672 37888 ft 350 kts 239°
2026-04-24 10:15 30.91759 133.66970 37887 ft 350 kts 239°
2026-04-24 10:16 30.89039 133.62268 37887 ft 351 kts 239°
2026-04-24 10:16 30.86309 133.57555 37885 ft 351 kts 239°
2026-04-24 10:17 30.83577 133.52843 37885 ft 352 kts 239°
2026-04-24 10:17 30.80836 133.48121 37886 ft 352 kts 239°
2026-04-24 10:18 30.78089 133.43396 37884 ft 353 kts 239°
2026-04-24 10:18 30.75341 133.38674 37885 ft 353 kts 239°
2026-04-24 10:19 30.72585 133.33943 37879 ft 353 kts 239°
2026-04-24 10:19 30.69827 133.29215 37885 ft 354 kts 239°
2026-04-24 10:20 30.67078 133.24510 37879 ft 354 kts 239°
2026-04-24 10:20 30.64311 133.19777 37878 ft 355 kts 239°
2026-04-24 10:21 30.61536 133.15036 37880 ft 355 kts 239°
2026-04-24 10:21 30.58759 133.10299 37883 ft 355 kts 239°
2026-04-24 10:22 30.55975 133.05555 37876 ft 356 kts 239°
2026-04-24 10:22 30.53188 133.00811 37870 ft 356 kts 239°
2026-04-24 10:23 30.50400 132.96073 37879 ft 356 kts 239°
2026-04-24 10:23 30.47605 132.91326 37870 ft 356 kts 239°
2026-04-24 10:24 30.44809 132.86584 37879 ft 357 kts 239°
2026-04-24 10:24 30.42005 132.81834 37885 ft 357 kts 239°
2026-04-24 10:25 30.39202 132.77091 37882 ft 357 kts 239°
2026-04-24 10:25 30.36391 132.72341 37879 ft 357 kts 239°
2026-04-24 10:26 30.33576 132.67590 37883 ft 358 kts 239°
2026-04-24 10:26 30.30762 132.62845 37883 ft 358 kts 239°
2026-04-24 10:27 30.27940 132.58093 37880 ft 358 kts 239°
2026-04-24 10:27 30.25119 132.53348 37882 ft 358 kts 239°
2026-04-24 10:28 30.22291 132.48598 37894 ft 359 kts 239°
2026-04-24 10:28 30.19464 132.43854 37892 ft 359 kts 239°
2026-04-24 10:29 30.16630 132.39103 37895 ft 359 kts 239°
2026-04-24 10:29 30.13795 132.34358 37900 ft 359 kts 239°
2026-04-24 10:30 30.10954 132.29608 37899 ft 359 kts 239°
2026-04-24 10:30 30.08110 132.24857 37902 ft 359 kts 240°
2026-04-24 10:31 30.05284 132.20144 37905 ft 360 kts 240°
2026-04-24 10:31 30.02432 132.15392 37911 ft 360 kts 240°
2026-04-24 10:32 29.99581 132.10646 37912 ft 360 kts 240°
2026-04-24 10:32 29.96722 132.05894 37914 ft 360 kts 240°
2026-04-24 10:33 29.93863 132.01148 37920 ft 361 kts 240°
2026-04-24 10:33 29.90998 131.96396 37921 ft 361 kts 240°
2026-04-24 10:34 29.88133 131.91651 37921 ft 361 kts 240°
2026-04-24 10:34 29.85261 131.86899 37924 ft 361 kts 240°
2026-04-24 10:35 29.82379 131.82154 37922 ft 362 kts 238°
2026-04-24 10:35 29.79199 131.77630 37926 ft 365 kts 236°
2026-04-24 10:36 29.75918 131.73164 37928 ft 365 kts 236°
2026-04-24 10:36 29.72613 131.68711 37930 ft 366 kts 236°
2026-04-24 10:37 29.69309 131.64259 37929 ft 366 kts 236°
2026-04-24 10:37 29.66559 131.60551 37930 ft 366 kts 236°
2026-04-24 10:38 29.63230 131.56063 37933 ft 367 kts 236°
2026-04-24 10:38 29.59936 131.51625 37933 ft 367 kts 236°
2026-04-24 10:39 29.56593 131.47127 37936 ft 368 kts 236°
2026-04-24 10:39 29.53294 131.42693 37938 ft 368 kts 236°
2026-04-24 10:40 29.49964 131.38223 37941 ft 368 kts 236°
2026-04-24 10:40 29.46633 131.33757 37941 ft 369 kts 236°
2026-04-24 10:41 29.43292 131.29280 37939 ft 369 kts 236°
2026-04-24 10:41 29.39948 131.24807 37939 ft 370 kts 236°
2026-04-24 10:42 29.36594 131.20324 37938 ft 370 kts 236°
2026-04-24 10:42 29.33238 131.15844 37941 ft 371 kts 236°
2026-04-24 10:43 29.29874 131.11358 37945 ft 371 kts 236°
2026-04-24 10:43 29.26511 131.06879 37944 ft 371 kts 236°
2026-04-24 10:44 29.23143 131.02397 37946 ft 371 kts 236°
2026-04-24 10:44 29.19771 130.97916 37947 ft 371 kts 236°
2026-04-24 10:45 29.16402 130.93443 37943 ft 371 kts 236°
2026-04-24 10:45 29.13024 130.88962 37947 ft 372 kts 236°
2026-04-24 10:46 29.09646 130.84486 37946 ft 372 kts 236°
2026-04-24 10:46 29.06255 130.79999 37946 ft 372 kts 236°
2026-04-24 10:47 29.02877 130.75529 37948 ft 369 kts 233°
2026-04-24 10:47 28.99559 130.71154 37946 ft 362 kts 233°
2026-04-24 10:48 28.96274 130.66823 37947 ft 361 kts 233°
2026-04-24 10:48 28.92985 130.62488 37948 ft 361 kts 233°
2026-04-24 10:49 28.89696 130.58157 37949 ft 361 kts 233°
2026-04-24 10:49 28.86399 130.53822 37948 ft 362 kts 233°
2026-04-24 10:50 28.83102 130.49492 37957 ft 362 kts 233°
2026-04-24 10:50 28.79797 130.45155 37955 ft 362 kts 233°
2026-04-24 10:51 28.76489 130.40819 37953 ft 362 kts 233°
2026-04-24 10:51 28.73182 130.36490 37959 ft 363 kts 233°
2026-04-24 10:52 28.69868 130.32154 37962 ft 363 kts 233°
2026-04-24 10:52 28.66553 130.27824 37958 ft 363 kts 233°
2026-04-24 10:53 28.63232 130.23489 37959 ft 363 kts 233°
2026-04-24 10:53 28.59913 130.19162 37965 ft 363 kts 233°
2026-04-24 10:54 28.56610 130.14860 37958 ft 363 kts 233°
2026-04-24 10:54 28.53289 130.10537 37954 ft 363 kts 233°
2026-04-24 10:55 28.49959 130.06210 37948 ft 363 kts 233°
2026-04-24 10:55 28.46625 130.01881 37946 ft 364 kts 233°
2026-04-24 10:56 28.43291 129.97555 37941 ft 364 kts 233°
2026-04-24 10:56 28.39948 129.93224 37936 ft 364 kts 233°
2026-04-24 10:57 28.36606 129.88899 37937 ft 365 kts 233°
2026-04-24 10:57 28.33258 129.84569 37937 ft 365 kts 233°
2026-04-24 10:58 28.29909 129.80243 37941 ft 365 kts 233°
2026-04-24 10:58 28.26552 129.75911 37947 ft 365 kts 233°
2026-04-24 10:59 28.23190 129.71578 37955 ft 366 kts 233°
2026-04-24 10:59 28.19829 129.67250 37961 ft 366 kts 233°
2026-04-24 11:00 28.16461 129.62917 37965 ft 366 kts 233°
2026-04-24 11:00 28.13092 129.58588 37971 ft 367 kts 233°
2026-04-24 11:01 28.09738 129.54283 37982 ft 367 kts 233°
2026-04-24 11:01 28.06354 129.49942 37979 ft 368 kts 233°
2026-04-24 11:02 28.02972 129.45610 37986 ft 367 kts 233°
2026-04-24 11:02 27.99584 129.41275 38000 ft 367 kts 233°
2026-04-24 11:03 27.96193 129.36939 37979 ft 368 kts 233°
2026-04-24 11:03 27.92797 129.32602 37994 ft 369 kts 233°
2026-04-24 11:04 27.89387 129.28251 37989 ft 370 kts 233°
2026-04-24 11:04 27.85975 129.23902 37995 ft 370 kts 233°
2026-04-24 11:05 27.82554 129.19548 37978 ft 370 kts 233°
2026-04-24 11:05 27.79136 129.15201 37997 ft 370 kts 233°
2026-04-24 11:06 27.75709 129.10847 37995 ft 371 kts 233°
2026-04-24 11:06 27.72275 129.06491 37999 ft 371 kts 233°
2026-04-24 11:07 27.67121 128.99962 37991 ft 372 kts 233°
2026-04-24 11:07 27.63681 128.95611 37988 ft 372 kts 232°
2026-04-24 11:08 27.60234 128.91255 37983 ft 372 kts 232°
2026-04-24 11:08 27.56784 128.86899 37976 ft 372 kts 232°
2026-04-24 11:09 27.53334 128.82548 37970 ft 373 kts 232°
2026-04-24 11:09 27.49876 128.78191 37965 ft 373 kts 232°
2026-04-24 11:10 27.46419 128.73840 37964 ft 373 kts 232°
2026-04-24 11:10 27.43132 128.69356 37965 ft 370 kts 239°
2026-04-24 11:11 27.40400 128.64465 37963 ft 369 kts 241°
2026-04-24 11:11 27.37782 128.59493 37968 ft 369 kts 242°
2026-04-24 11:12 27.35183 128.54512 37979 ft 369 kts 242°
2026-04-24 11:12 27.32590 128.49568 37984 ft 370 kts 242°
2026-04-24 11:13 27.29968 128.44593 38000 ft 369 kts 242°
2026-04-24 11:13 27.27348 128.39633 37847 ft 370 kts 242°
2026-04-24 11:14 27.26034 128.37148 37592 ft 370 kts 242°
2026-04-24 11:14 27.24718 128.34662 37338 ft 370 kts 242°
2026-04-24 11:14 27.23403 128.32177 37084 ft 371 kts 242°
2026-04-24 11:14 27.22082 128.29681 36833 ft 372 kts 242°
2026-04-24 11:15 27.20757 128.27179 36584 ft 373 kts 242°
2026-04-24 11:15 27.19428 128.24673 36340 ft 374 kts 242°
2026-04-24 11:15 27.18098 128.22166 36048 ft 372 kts 242°
2026-04-24 11:15 27.16776 128.19677 35433 ft 373 kts 241°
2026-04-24 11:16 27.15442 128.17163 34699 ft 377 kts 241°
2026-04-24 11:16 27.14093 128.14622 33928 ft 380 kts 241°
2026-04-24 11:16 27.12730 128.12057 33048 ft 384 kts 241°
2026-04-24 11:16 27.11358 128.09479 32223 ft 387 kts 241°
2026-04-24 11:17 27.09973 128.06878 31379 ft 389 kts 241°
2026-04-24 11:17 27.08578 128.04259 30518 ft 392 kts 241°
2026-04-24 11:17 27.07169 128.01616 29535 ft 397 kts 240°
2026-04-24 11:17 27.05749 127.98953 28517 ft 400 kts 240°
2026-04-24 11:18 27.04251 127.96298 27425 ft 406 kts 236°
2026-04-24 11:18 27.02365 127.93917 26461 ft 412 kts 225°
2026-04-24 11:18 27.00001 127.92033 25344 ft 424 kts 212°
2026-04-24 11:18 26.97206 127.90847 24359 ft 437 kts 198°
2026-04-24 11:19 26.94167 127.90453 23619 ft 442 kts 186°
2026-04-24 11:19 26.91092 127.90488 22735 ft 441 kts 184°
2026-04-24 11:19 26.88030 127.90601 21851 ft 439 kts 183°
2026-04-24 11:19 26.84985 127.90718 20942 ft 437 kts 183°
2026-04-24 11:20 26.81959 127.90825 20041 ft 435 kts 184°
2026-04-24 11:20 26.78934 127.90924 19103 ft 435 kts 184°
2026-04-24 11:20 26.75908 127.91019 18163 ft 434 kts 184°
2026-04-24 11:20 26.72888 127.91111 17136 ft 433 kts 184°
2026-04-24 11:21 26.69890 127.91202 16188 ft 430 kts 183°
2026-04-24 11:21 26.66904 127.91292 15249 ft 428 kts 183°
2026-04-24 11:21 26.63936 127.91380 14312 ft 425 kts 183°
2026-04-24 11:21 26.60985 127.91468 13311 ft 423 kts 182°
2026-04-24 11:22 26.58060 127.91556 12486 ft 416 kts 182°
2026-04-24 11:22 26.55215 127.91648 11841 ft 405 kts 182°
2026-04-24 11:22 26.52436 127.91743 11210 ft 394 kts 182°
2026-04-24 11:22 26.50635 127.91809 10821 ft 387 kts 182°
2026-04-24 11:23 26.47972 127.91910 10266 ft 378 kts 182°
2026-04-24 11:23 26.45375 127.92015 9716 ft 368 kts 182°
2026-04-24 11:23 26.42853 127.92122 9168 ft 359 kts 182°
2026-04-24 11:23 26.40390 127.92233 8641 ft 349 kts 182°
2026-04-24 11:24 26.37990 127.92346 8146 ft 341 kts 182°
2026-04-24 11:24 26.35650 127.92463 7683 ft 332 kts 182°
2026-04-24 11:24 26.33375 127.92581 7245 ft 324 kts 182°
2026-04-24 11:24 26.31150 127.92649 6871 ft 311 kts 191°
2026-04-24 11:25 26.29180 127.91975 6627 ft 288 kts 209°
2026-04-24 11:25 26.27409 127.91040 6403 ft 275 kts 213°
2026-04-24 11:25 26.25232 127.89676 6061 ft 263 kts 216°
2026-04-24 11:25 26.24201 127.88974 5902 ft 262 kts 217°
2026-04-24 11:26 26.22663 127.87882 5656 ft 263 kts 218°
2026-04-24 11:26 26.21134 127.86761 5408 ft 264 kts 218°
2026-04-24 11:26 26.19608 127.85627 5166 ft 264 kts 218°
2026-04-24 11:26 26.18085 127.84485 4941 ft 264 kts 218°
2026-04-24 11:27 26.16565 127.83341 4814 ft 263 kts 218°
2026-04-24 11:27 26.15048 127.82195 4687 ft 264 kts 218°
2026-04-24 11:27 26.13529 127.81048 4561 ft 264 kts 218°
2026-04-24 11:27 26.12018 127.79908 4403 ft 259 kts 218°
2026-04-24 11:28 26.10547 127.78795 4094 ft 255 kts 217°
2026-04-24 11:28 26.09081 127.77685 3732 ft 255 kts 217°
2026-04-24 11:28 26.07608 127.76571 3359 ft 257 kts 216°
2026-04-24 11:28 26.06202 127.75391 3111 ft 247 kts 227°
2026-04-24 11:29 26.05282 127.73865 2967 ft 232 kts 253°
2026-04-24 11:29 26.04995 127.72154 2832 ft 220 kts 267°
2026-04-24 11:29 26.04909 127.70486 2633 ft 215 kts 270°
2026-04-24 11:29 26.04857 127.68826 2345 ft 215 kts 270°
2026-04-24 11:30 26.04817 127.67189 2177 ft 206 kts 273°
2026-04-24 11:30 26.05052 127.65692 2051 ft 190 kts 295°
2026-04-24 11:30 26.05894 127.64666 1994 ft 180 kts 330°
2026-04-24 11:30 26.07035 127.64103 1994 ft 179 kts 341°
2026-04-24 11:31 26.08198 127.63825 1875 ft 166 kts 355°
2026-04-24 11:31 26.09306 127.63767 1694 ft 152 kts 357°
2026-04-24 11:31 26.10300 127.63716 1500 ft 138 kts 357°
2026-04-24 11:31 26.11240 127.63670 1318 ft 137 kts 357°
2026-04-24 11:32 26.12193 127.63624 1129 ft 137 kts 358°
2026-04-24 11:32 26.13147 127.63578 956 ft 137 kts 357°
2026-04-24 11:32 26.14099 127.63533 780 ft 137 kts 357°
2026-04-24 11:32 26.15053 127.63487 608 ft 138 kts 357°
2026-04-24 11:33 26.16011 127.63442 416 ft 138 kts 357°
2026-04-24 11:33 26.16967 127.63397 242 ft 137 kts 357°
2026-04-24 11:33 26.17916 127.63352 65 ft 135 kts 358°
2026-04-24 11:33 26.18795 127.63311 31 ft 108 kts 358°
2026-04-24 11:34 26.19366 127.63289 31 ft 56 kts 358°
2026-04-24 11:34 26.19643 127.63299 33 ft 36 kts 13°
2026-04-24 11:34 26.19870 127.63413 32 ft 36 kts 27°
2026-04-24 11:34 26.20054 127.63445 32 ft 27 kts 356°
2026-04-24 11:35 26.20220 127.63438 31 ft 22 kts 358°
2026-04-24 11:35 26.20301 127.63508 31 ft 17 kts 88°
2026-04-24 11:35 26.20307 127.63643 31 ft 18 kts 86°
2026-04-24 11:35 26.20315 127.63798 31 ft 22 kts 88°
2026-04-24 11:36 26.20321 127.63977 31 ft 24 kts 88°
2026-04-24 11:36 26.20327 127.64166 31 ft 25 kts 88°
2026-04-24 11:36 26.20334 127.64346 31 ft 20 kts 88°
2026-04-24 11:36 26.20338 127.64460 32 ft 7 kts 87°
2026-04-24 11:37 26.20339 127.64481 32 ft 0 kts 86°
2026-04-24 11:38 26.20340 127.64505 32 ft 6 kts 86°
2026-04-24 11:38 26.20344 127.64581 31 ft 13 kts 88°
2026-04-24 11:39 26.20347 127.64703 31 ft 17 kts 86°
2026-04-24 11:39 26.20423 127.64755 31 ft 16 kts 356°
2026-04-24 11:39 26.20543 127.64749 31 ft 18 kts 359°
2026-04-24 11:39 26.20668 127.64747 31 ft 18 kts 359°
2026-04-24 11:40 26.20795 127.64736 31 ft 18 kts 358°
2026-04-24 11:40 26.20925 127.64731 31 ft 19 kts 358°
2026-04-24 11:40 26.21055 127.64753 31 ft 18 kts 357°
2026-04-24 11:40 26.21185 127.64745 31 ft 19 kts 357°
2026-04-24 11:41 26.21317 127.64746 31 ft 14 kts 31°
2026-04-24 11:41 26.21332 127.64848 31 ft 14 kts 88°
2026-04-24 11:41 26.21335 127.64933 31 ft 0 kts 88°